Theta_e
294 293 293 293 293 293 294 293 294 293 292 292 291 290 288 288 285 284 284 285 286 289 291 289 292 294 294 295 296 295 295 298 300 298 297 296 296 300 302 302 301 301 301 302 301 301 302 301 301 302 304 305 305 306 306 305 306 306 307 310 313 313 318 320 319 322 326 329 329 323 323 323 322 321
295 295 293 293 292 293 292 292 293 292 292 291 291 290 291 290 286 286 284 285 288 288 291 291 291 293 294 295 295 295 295 300 299 297 296 296 296 301 301 300 300 300 301 301 299 300 300 301 302 303 303 303 303 304 304 304 304 305 307 309 310 310 310 316 319 321 322 323 323 323 322 322 320 320
294 293 292 292 291 292 291 291 291 291 292 291 291 290 291 291 289 287 287 285 288 290 289 291 293 293 294 295 295 295 295 298 299 297 296 296 300 301 299 300 300 300 300 300 301 301 300 299 300 301 302 302 303 303 303 303 303 304 306 306 307 309 310 312 318 322 324 325 325 325 323 322 321 322
293 293 292 292 291 291 290 290 290 290 291 291 290 290 290 290 289 289 287 286 286 290 290 291 292 293 293 294 293 293 294 296 300 296 296 296 300 297 296 299 300 300 300 299 299 300 299 298 299 300 301 302 302 302 302 301 302 303 303 303 305 307 308 310 315 322 325 325 326 327 324 322 322 321
293 294 292 291 292 291 289 289 290 290 290 290 290 291 290 289 289 288 287 286 287 289 292 292 292 293 294 292 293 292 293 294 294 297 295 296 295 295 295 296 299 299 299 299 299 299 299 298 300 301 300 301 301 301 300 300 300 300 302 303 305 306 307 308 311 317 324 326 326 326 323 320 321 321
294 292 291 291 291 291 289 289 289 289 289 289 289 289 290 288 289 290 288 287 287 286 289 290 292 292 293 291 293 292 292 292 294 294 294 295 295 295 295 295 296 299 300 299 299 299 299 299 299 299 299 299 299 299 299 299 299 300 301 300 301 304 305 306 308 314 320 324 323 322 321 320 320 320
292 292 292 291 291 292 288 289 288 289 288 289 288 289 289 288 289 289 289 288 286 286 287 290 290 291 291 291 291 293 293 294 294 293 293 294 295 296 296 295 296 298 299 299 298 299 299 299 299 298 298 298 298 298 298 299 299 299 300 300 300 302 303 304 305 308 320 323 321 320 320 320 320 319
291 291 290 291 290 291 288 287 288 288 288 288 289 289 289 289 288 289 290 289 288 287 286 288 289 291 290 291 292 293 293 292 292 293 293 294 294 294 295 295 295 297 299 299 299 299 299 299 299 298 298 298 298 298 298 299 299 299 299 300 300 300 301 302 302 304 310 320 319 319 318 320 321 321
291 292 290 290 290 289 287 288 288 288 287 288 289 288 288 289 289 290 289 289 288 287 287 288 290 290 290 291 291 292 291 291 292 292 292 293 293 294 295 296 296 298 299 299 298 298 298 298 298 298 298 298 298 298 298 298 298 299 299 299 299 299 300 302 303 305 307 311 315 318 319 320 322 324
292 292 290 291 289 288 287 288 288 287 287 288 288 288 288 288 288 288 288 289 288 288 287 287 287 289 289 289 290 291 291 290 290 290 292 293 293 293 293 294 296 296 296 295 295 297 297 297 298 298 298 298 298 298 298 298 298 298 298 298 298 299 299 300 301 303 303 307 313 317 317 316 320 322
292 291 291 290 289 288 287 288 288 288 288 289 289 290 289 289 288 288 288 288 287 287 287 287 288 288 289 289 288 290 291 291 290 289 289 290 292 293 293 293 294 295 295 296 297 296 297 298 298 298 298 297 298 298 298 298 298 298 298 297 297 297 297 298 299 301 304 306 308 312 312 311 314 319
291 291 291 290 290 289 289 288 289 288 289 289 289 289 289 289 288 288 288 287 287 287 286 286 286 287 287 288 289 290 290 288 289 290 290 288 289 291 292 292 292 294 295 294 294 296 296 296 297 297 297 298 298 298 298 298 298 299 298 297 298 298 298 298 299 301 303 305 306 307 309 310 312 313
291 291 291 290 290 295 301 301 299 298 298 293 290 290 289 290 289 288 287 287 287 286 286 286 287 287 286 287 287 287 287 287 287 289 290 289 290 291 291 292 294 294 294 294 294 293 294 294 294 294 293 294 296 296 298 298 298 298 298 297 298 298 299 300 301 302 303 304 305 306 307 309 311 310
291 291 290 295 303 302 301 300 298 296 296 297 294 292 291 290 288 288 287 287 287 286 286 286 286 285 285 286 287 287 287 289 290 289 290 289 290 290 290 291 293 295 294 293 292 293 294 293 293 293 293 294 296 295 294 294 295 296 296 296 297 297 297 298 299 300 302 302 303 305 306 307 308 309
292 291 290 289 295 298 297 295 295 295 294 293 293 294 295 295 292 288 287 286 287 287 286 286 286 285 285 286 287 287 288 288 289 289 289 289 289 288 287 286 290 296 294 292 291 291 293 293 291 292 292 293 294 294 294 296 297 296 296 297 297 297 297 298 299 299 300 301 301 303 304 306 307 308
291 289 289 290 291 292 293 295 292 292 293 293 293 293 293 293 292 292 290 288 286 286 286 286 286 286 286 286 287 287 288 288 288 289 289 289 289 288 288 288 287 292 294 291 290 290 293 293 292 291 292 293 293 294 295 296 296 296 296 297 297 297 297 298 298 299 299 300 300 302 303 305 305 306
289 290 291 291 291 290 297 297 290 289 290 293 293 293 293 292 293 291 290 291 291 289 287 286 286 286 287 286 287 289 289 289 288 288 288 289 289 289 288 289 289 291 294 291 289 288 291 291 291 290 292 293 293 294 295 296 296 296 297 297 297 297 297 298 298 299 299 300 301 301 303 305 305 306
289 289 289 288 289 290 290 291 290 290 289 289 289 288 288 288 290 291 291 291 291 292 290 287 286 288 288 287 288 290 290 288 288 288 288 289 289 289 289 291 291 292 294 291 290 288 289 291 290 289 291 292 293 293 294 295 296 296 296 296 296 296 297 297 297 298 298 299 299 300 302 304 304 305
288 288 289 287 288 289 289 292 293 290 289 288 288 287 287 287 288 288 288 288 289 290 289 288 288 288 289 289 289 289 290 290 290 290 290 290 290 291 292 292 292 292 293 292 290 285 288 290 289 289 290 292 292 293 294 295 296 296 296 296 296 297 297 297 297 297 298 298 299 299 300 302 303 304
288 288 288 288 289 290 290 293 292 291 290 288 287 287 287 287 287 287 292 292 292 291 290 289 289 290 290 291 290 291 290 291 291 292 293 292 291 290 288 287 289 289 292 292 290 287 287 290 288 288 290 291 290 292 292 295 296 296 296 297 297 297 297 297 297 297 297 298 298 299 299 300 301 302
288 288 289 290 290 290 289 292 290 290 291 287 286 286 286 286 286 287 289 291 291 291 291 291 291 290 290 290 291 291 291 291 292 291 290 288 289 287 285 286 287 287 290 291 291 289 287 289 289 289 290 290 290 291 292 293 295 296 296 296 296 297 297 297 297 297 297 297 298 298 299 299 300 302
287 287 296 296 290 289 289 291 290 289 290 287 286 285 285 285 285 286 288 288 289 291 291 291 290 290 290 291 291 291 291 291 292 291 288 289 289 287 287 285 286 287 289 290 292 289 287 289 289 288 290 290 290 291 292 293 294 296 296 296 296 296 296 296 296 296 297 298 298 298 298 299 301 305
287 287 290 293 293 291 291 290 289 289 290 287 286 285 284 284 284 286 287 286 287 287 287 287 288 289 290 291 290 291 292 292 294 293 291 291 289 287 287 287 286 284 286 290 292 286 286 287 288 288 286 285 289 291 292 293 294 295 298 300 301 299 297 296 295 296 297 298 298 299 299 299 300 306
286 286 286 290 290 290 289 289 289 289 290 287 287 285 284 284 284 287 286 288 288 287 287 286 287 287 288 288 289 289 290 291 294 292 292 292 291 288 287 287 286 284 285 289 291 287 287 288 287 289 288 285 284 289 291 293 294 296 298 299 299 299 299 299 298 297 297 298 298 299 299 299 301 306
284 285 286 286 290 290 289 289 289 289 290 290 289 286 285 285 288 289 286 287 290 286 287 287 287 287 288 288 288 288 289 290 292 292 292 293 292 290 288 286 285 285 287 289 291 289 285 287 286 288 288 289 288 288 290 291 294 296 299 299 299 300 300 303 302 302 297 297 298 298 298 299 300 305
284 285 286 286 289 290 289 289 289 289 289 289 290 287 288 288 288 288 289 286 286 286 286 285 286 286 286 286 287 288 288 289 291 292 292 293 292 292 290 288 285 284 285 290 290 289 287 286 288 287 288 288 288 290 289 291 294 297 299 301 302 303 304 304 303 302 301 300 300 299 300 299 299 301
285 285 286 288 291 289 289 289 289 289 289 290 288 288 288 288 288 289 286 286 285 285 285 285 285 285 285 285 286 287 287 288 290 291 292 293 293 292 291 291 290 289 289 290 292 290 288 287 289 288 287 289 288 289 290 290 292 298 299 301 303 305 305 304 302 302 302 301 301 299 298 298 299 300
284 286 285 288 289 289 289 289 289 289 289 288 288 288 288 288 288 286 285 284 284 285 284 284 284 284 285 285 285 286 287 288 290 291 292 292 293 292 291 290 291 291 291 290 290 289 290 289 289 290 289 288 288 288 289 293 295 296 297 301 302 303 303 303 302 302 302 302 302 300 300 300 301 301
287 288 289 289 289 288 289 289 288 288 289 288 288 288 288 290 284 284 283 283 284 283 283 283 284 284 285 285 286 287 288 289 290 291 291 292 292 292 291 290 291 292 291 290 290 291 290 289 288 289 289 290 289 290 292 292 294 296 297 298 299 300 302 303 303 302 301 302 301 301 301 301 301 302
289 289 289 289 288 288 289 288 286 285 287 288 288 288 289 284 283 283 283 283 283 282 283 283 283 284 284 285 286 287 288 288 288 289 290 290 290 291 290 288 289 290 291 291 291 290 289 289 289 289 290 291 292 291 292 293 293 297 298 299 300 299 300 302 302 301 301 301 301 301 302 303 302 302
287 289 289 288 287 288 288 288 288 287 287 286 285 284 283 283 283 284 282 283 282 283 283 283 283 284 285 286 286 286 286 287 288 289 290 289 289 290 289 288 287 288 290 291 291 291 290 289 289 288 286 287 288 288 291 291 291 293 297 298 299 297 299 301 301 301 301 301 301 301 302 303 302 302
287 287 288 287 285 285 285 284 283 283 284 283 283 284 283 283 283 286 287 287 283 282 282 283 283 284 284 284 285 285 285 286 287 289 289 289 289 289 289 287 286 287 287 289 289 290 290 289 289 288 287 286 285 286 289 289 288 292 293 295 298 299 300 300 300 300 301 301 300 300 301 302 302 303
286 283 284 284 284 283 283 282 282 282 282 282 283 283 283 283 282 282 281 281 282 282 282 282 282 283 283 283 284 284 284 285 286 288 288 289 289 289 289 286 286 286 285 286 287 288 288 289 289 287 287 289 288 287 286 285 286 290 290 291 293 294 296 299 299 300 301 301 299 300 300 301 302 303
282 281 279 281 281 282 280 281 280 281 281 281 282 282 284 283 282 282 281 281 281 282 282 282 282 282 282 283 283 283 283 284 285 287 288 288 289 287 287 286 286 286 286 286 286 287 288 288 288 290 289 290 290 288 287 284 284 287 290 290 290 291 293 295 299 300 300 299 299 298 298 299 300 303
279 278 280 282 281 280 281 279 280 280 280 279 280 281 281 281 282 282 281 281 281 281 281 282 282 282 282 282 282 282 283 283 284 286 287 288 288 287 287 286 286 286 286 286 286 287 287 287 287 287 288 287 288 288 291 288 285 285 288 289 290 289 290 292 293 296 298 299 299 294 295 296 298 300
280 277 278 280 281 281 280 281 279 280 280 280 280 279 279 281 281 280 280 281 280 281 281 281 282 282 282 282 282 282 283 283 284 284 285 286 286 286 287 286 286 287 287 286 286 287 287 286 286 285 284 283 283 282 283 289 289 286 285 286 288 288 290 291 291 292 292 293 295 294 290 291 293 295
281 280 281 281 282 281 279 282 281 281 281 282 280 280 279 279 281 281 281 280 280 280 281 281 281 282 282 282 282 282 282 282 283 284 284 285 286 286 285 285 286 287 287 287 287 287 287 285 286 285 283 282 281 280 282 286 287 289 287 285 286 287 288 289 289 288 289 291 291 291 290 289 290 292
281 283 282 282 282 282 281 280 280 280 281 281 280 281 280 281 281 280 280 280 281 280 281 281 281 282 282 282 281 281 282 283 283 283 283 284 284 285 285 284 285 286 286 287 287 287 287 286 285 284 283 281 280 280 280 284 284 286 289 287 285 286 287 288 287 287 288 289 288 289 289 287 287 289
282 282 282 282 283 282 282 282 281 281 282 281 282 281 282 281 281 280 280 281 280 280 281 281 281 281 281 281 282 281 281 281 282 282 282 283 284 284 285 285 285 285 286 286 286 286 286 285 285 284 284 282 281 281 283 282 282 285 287 289 287 286 285 286 286 287 287 287 288 290 290 291 291 290
282 282 283 282 283 282 282 282 282 282 282 282 281 281 280 280 280 279 280 279 279 280 280 280 280 281 281 282 281 281 281 282 282 282 282 282 283 284 285 285 285 284 285 285 285 285 285 285 285 285 285 285 285 285 284 285 286 287 286 287 289 287 285 286 285 285 286 287 288 288 287 288 287 289
284 283 284 282 282 283 283 282 282 282 282 282 282 282 281 280 280 279 279 280 278 278 278 279 280 279 280 281 281 280 280 281 281 282 282 282 282 283 284 285 284 284 284 284 284 285 285 286 287 286 287 287 287 288 285 283 282 283 284 285 288 288 288 288 286 285 285 286 287 286 286 286 286 286
284 283 284 283 283 284 283 283 282 282 282 281 281 281 282 280 278 283 281 278 278 276 277 277 278 278 279 280 280 280 279 280 280 281 281 281 281 282 284 284 284 284 283 283 283 284 286 288 288 288 288 287 286 284 282 282 282 283 284 285 286 288 288 288 288 287 286 285 285 285 286 286 286 285
283 284 284 285 283 284 284 283 283 283 283 282 281 281 278 279 277 278 276 278 277 277 277 277 277 277 278 279 279 279 279 280 280 280 280 281 281 280 281 283 283 284 283 283 284 285 285 286 287 287 286 286 285 285 283 283 284 284 284 284 285 286 287 288 288 287 287 287 287 285 285 285 285 283
284 283 284 284 284 284 284 283 283 283 283 284 281 280 277 278 279 279 277 276 276 277 277 276 277 276 277 278 278 279 280 280 279 279 280 280 280 281 280 282 283 283 284 283 284 285 285 286 286 286 285 284 285 285 284 284 284 284 284 285 285 285 285 286 286 287 287 286 287 287 287 287 286 285
284 284 284 284 284 284 284 284 284 283 284 282 281 280 279 277 278 278 278 276 276 276 276 276 276 277 277 277 277 279 280 282 280 280 280 280 280 281 281 281 282 283 284 283 283 284 284 285 285 285 285 285 285 285 285 285 284 285 285 285 284 285 285 285 284 284 284 284 285 286 286 286 286 286
Wind_Speed
6 5 5 5 5 5 4 5 5 5 5 5 4 3 3 2 2 6 5 8 7 10 10 9 6 9 9 8 7 8 7 11 14 9 9 9 9 13 21 19 18 18 18 18 17 19 19 21 21 23 24 24 23 23 23 22 21 21 22 22 21 21 18 23 23 25 27 29 28 25 25 25 25 24
5 5 5 5 6 4 5 5 4 4 3 4 4 3 4 1 2 3 5 7 5 7 9 7 9 11 12 11 9 7 8 13 15 9 9 10 9 18 21 19 17 17 18 18 18 19 19 20 22 24 24 24 23 22 23 23 21 21 21 21 21 19 19 18 24 25 25 26 25 24 25 25 25 25
5 5 5 4 5 4 5 4 4 3 3 4 3 4 3 3 1 3 3 8 3 4 9 8 9 11 12 12 12 10 9 11 14 10 9 9 15 22 14 18 17 18 18 18 19 22 20 19 20 22 24 24 23 24 23 23 23 23 21 19 19 19 18 17 20 24 27 27 27 25 25 25 25 25
5 5 4 3 3 3 3 3 4 3 3 3 4 3 4 4 3 2 3 6 10 7 8 10 11 11 12 12 12 12 11 10 14 10 10 11 15 11 10 15 17 17 18 18 17 18 19 20 21 21 24 25 24 24 24 23 23 22 20 17 17 16 17 17 17 24 28 28 27 27 25 26 26 26
4 4 4 3 2 1 3 3 3 4 3 3 4 3 4 5 5 2 3 6 10 8 5 8 9 11 11 10 10 12 11 13 12 11 10 11 10 10 10 10 14 18 18 18 18 19 19 21 22 24 23 24 24 23 21 20 20 19 18 17 15 14 16 18 18 22 29 29 27 27 26 27 27 27
3 3 4 2 1 1 3 3 3 3 3 3 4 4 4 5 6 4 2 5 6 13 9 9 8 10 9 11 10 11 12 12 13 14 13 10 9 10 10 10 10 16 17 19 20 20 19 20 20 20 19 20 21 21 20 20 19 18 17 16 13 14 17 18 19 17 26 28 28 28 26 27 26 27
3 3 3 1 1 2 3 2 3 3 3 3 3 5 4 5 7 7 4 4 7 10 11 9 11 9 9 9 13 12 10 11 11 14 13 12 10 9 10 10 10 15 18 19 20 20 20 19 20 20 20 20 20 20 20 19 19 19 17 14 13 15 17 17 18 19 24 29 28 27 25 26 26 27
3 4 3 0 1 1 2 3 3 3 3 3 4 5 6 5 7 7 6 6 6 7 11 10 10 11 10 10 10 11 10 11 11 10 12 12 12 11 10 10 11 13 20 21 21 21 20 19 19 20 20 20 20 20 19 19 19 19 16 14 14 16 17 17 16 16 18 28 28 28 27 28 28 28
4 3 3 2 2 2 3 4 4 4 5 5 4 5 6 6 6 6 7 7 6 8 11 12 9 9 10 9 11 10 11 11 10 10 11 12 12 12 10 10 11 17 20 20 20 19 19 19 19 19 19 19 19 19 19 19 19 19 18 17 18 18 17 17 17 16 16 20 26 27 28 28 30 30
3 3 3 3 3 2 2 4 4 4 5 5 6 6 7 7 6 7 8 7 7 8 9 10 13 9 10 11 9 10 11 12 13 12 11 10 10 11 12 10 9 8 9 9 12 14 14 16 18 19 19 19 19 19 20 20 20 19 19 20 19 18 16 15 17 16 15 16 22 27 28 28 30 31
2 2 3 3 3 3 3 4 4 4 5 5 7 7 7 7 6 8 8 8 8 8 9 10 9 11 9 8 12 11 10 11 10 13 13 13 9 9 9 12 9 7 11 12 16 16 16 19 16 16 18 19 20 21 21 21 21 20 19 19 18 17 15 15 17 17 15 16 19 24 25 24 26 28
2 3 3 3 3 3 4 4 5 4 5 5 6 8 6 7 7 8 8 8 8 9 9 9 11 9 10 11 9 9 10 11 9 7 10 14 14 14 10 7 12 13 11 12 10 9 11 12 14 16 18 20 21 21 20 22 21 21 19 17 17 17 17 16 16 16 15 15 17 21 25 27 27 27
2 2 3 3 4 3 7 8 8 9 8 5 6 8 7 7 7 7 7 8 8 8 8 10 9 10 11 10 12 12 11 12 13 13 10 12 11 12 14 12 9 10 13 13 11 9 7 10 10 10 10 11 15 17 21 18 23 21 18 17 17 17 17 16 15 15 15 15 17 20 23 29 30 28
1 3 3 4 8 8 9 9 11 12 12 11 9 9 8 8 7 7 7 8 8 8 9 10 11 12 12 12 12 13 13 12 13 13 12 13 13 14 14 13 8 10 10 11 14 10 5 8 11 8 10 10 11 10 10 10 13 15 17 17 17 17 18 17 16 16 15 16 17 19 21 24 29 30
1 3 4 4 5 5 7 7 11 11 12 13 14 15 14 11 8 7 9 8 7 8 9 10 10 11 13 13 12 12 13 12 13 14 14 14 14 14 16 17 12 4 7 11 13 15 4 7 12 11 10 10 10 10 11 16 19 20 19 18 18 18 19 19 17 16 16 15 16 17 20 23 26 28
3 3 3 4 3 4 4 5 5 8 12 14 14 14 14 14 14 11 7 8 9 9 10 11 11 11 12 13 13 13 13 14 14 14 13 14 15 16 16 14 15 12 12 13 13 16 8 7 11 13 10 9 9 11 14 18 19 20 20 19 19 18 18 19 18 17 17 15 14 16 19 23 26 29
4 3 3 4 4 4 9 8 5 5 8 11 14 14 12 12 14 14 15 12 8 8 9 10 12 11 13 14 13 13 16 15 16 16 15 14 14 14 15 15 16 15 13 14 13 16 10 8 12 13 11 9 9 10 13 18 19 20 19 19 19 19 18 19 18 17 17 15 14 16 19 22 25 27
2 2 2 3 6 7 8 7 6 6 8 9 8 8 8 7 10 12 13 14 14 10 8 9 11 13 11 13 15 16 15 16 16 16 17 17 17 16 16 17 17 16 11 13 14 14 10 10 11 13 11 8 9 9 12 17 18 19 20 19 19 19 18 19 18 17 16 15 15 16 18 21 24 26
1 2 2 3 5 7 7 7 8 7 8 8 7 7 8 8 9 9 9 8 9 9 9 9 10 13 13 12 15 15 15 15 14 14 17 19 19 18 16 15 14 15 11 12 10 14 11 11 12 12 11 10 10 9 12 17 18 19 19 19 19 19 19 19 18 17 16 15 15 16 17 20 22 25
2 2 2 3 5 6 7 9 14 11 8 6 7 8 8 8 8 8 9 12 12 11 10 10 11 12 15 18 17 17 17 16 14 13 13 15 14 15 14 13 13 11 10 8 10 12 12 12 11 12 10 9 10 10 9 13 18 19 19 19 19 19 18 18 18 17 16 16 16 16 17 19 21 24
3 3 3 3 4 5 6 10 14 13 10 5 7 7 8 8 7 9 9 12 15 15 17 18 19 20 21 21 22 23 25 18 16 15 14 14 15 13 15 14 14 13 10 10 9 11 12 12 9 11 10 9 10 10 10 9 13 17 18 19 19 19 19 18 18 18 17 17 16 16 17 18 19 23
3 4 7 6 4 5 6 12 15 12 7 5 6 6 8 9 10 10 9 9 10 13 15 16 18 19 19 20 21 21 21 21 16 13 16 18 15 16 18 19 16 16 10 8 6 8 11 11 9 10 10 10 9 10 10 10 10 13 14 17 18 18 18 18 18 18 18 17 17 17 18 18 20 17
4 5 5 7 5 5 8 13 13 12 7 5 5 5 6 8 10 10 11 11 12 13 13 13 13 13 15 14 14 15 22 21 16 13 15 15 13 15 17 18 15 14 5 5 6 10 11 8 9 7 9 10 10 7 10 8 7 6 6 8 9 14 16 17 17 18 18 18 18 18 18 19 18 11
6 5 6 6 8 11 12 13 13 12 10 5 5 4 6 7 11 10 9 11 11 11 11 12 12 13 13 13 13 14 15 15 14 14 14 13 14 14 18 17 15 14 13 11 9 10 11 8 9 6 7 8 9 2 3 7 7 8 7 7 7 10 12 14 13 17 18 18 19 19 19 19 19 11
5 7 7 6 8 11 13 13 13 11 11 9 5 4 5 5 10 11 8 12 13 10 11 11 11 11 11 12 12 13 14 14 13 13 13 13 13 13 14 18 13 12 12 12 14 9 7 6 10 7 8 7 9 10 9 7 9 7 7 7 8 8 6 6 5 6 13 18 19 19 19 20 23 16
4 5 6 6 9 12 13 12 12 11 10 11 4 7 10 13 14 10 8 8 9 9 9 10 10 11 11 12 13 13 14 14 15 14 14 13 13 12 12 14 15 12 13 15 18 11 10 8 7 8 7 7 9 8 11 10 8 6 7 7 7 9 7 6 5 6 7 8 9 13 15 21 21 25
6 5 5 6 9 12 12 11 10 9 10 7 6 11 12 13 14 10 7 8 8 9 10 10 11 12 12 13 14 14 14 15 15 15 15 15 14 12 12 14 13 13 12 13 12 12 10 7 7 9 11 7 10 9 8 9 8 5 7 7 6 7 5 5 6 6 6 7 8 13 15 18 22 24
6 6 5 7 11 12 11 9 8 9 8 7 11 11 12 12 10 7 8 8 8 8 9 10 11 12 12 12 13 14 14 15 16 15 15 15 15 13 12 12 13 12 11 11 11 10 9 9 9 7 10 10 10 10 10 7 7 8 8 8 5 5 3 5 5 5 5 6 6 8 7 8 10 13
5 6 9 10 10 9 9 9 7 6 8 10 11 11 11 9 6 7 7 8 8 9 10 10 10 11 12 12 12 13 14 15 14 13 14 14 13 12 11 11 10 9 9 9 9 8 10 11 12 11 8 7 8 7 8 9 7 9 7 8 7 2 2 3 4 5 5 6 7 8 9 10 11 12
9 7 7 9 9 9 7 6 4 4 6 10 11 10 8 6 6 6 7 8 8 9 9 10 11 11 11 12 13 13 13 13 14 15 16 17 17 16 15 14 12 11 11 12 11 13 11 11 12 12 4 1 5 8 7 7 9 10 8 8 8 0 2 4 4 4 6 6 6 7 7 7 9 11
7 9 7 6 7 7 8 6 5 5 6 6 6 6 6 6 6 6 6 6 7 8 9 10 10 11 11 11 12 13 13 14 14 13 14 14 15 15 15 13 14 15 14 14 13 14 11 9 11 12 11 9 9 8 6 6 6 6 5 4 1 1 1 4 4 4 3 4 4 4 4 5 6 9
4 5 6 6 3 5 6 7 6 6 6 5 4 6 6 6 6 6 7 7 5 6 7 8 9 9 10 12 12 12 13 13 13 14 14 14 15 14 14 14 16 14 15 16 15 16 13 9 7 7 13 13 9 7 5 4 9 8 7 9 8 7 7 5 4 4 5 5 5 4 4 5 6 7
4 3 5 7 7 6 6 6 7 6 6 6 6 6 6 7 7 7 7 8 8 8 8 9 10 10 10 11 11 12 13 14 14 13 14 14 14 14 12 12 12 14 14 15 15 15 14 13 10 3 1 8 13 13 10 10 10 10 11 12 10 10 9 6 4 3 4 4 3 4 4 3 3 6
2 2 3 5 4 5 5 6 6 7 6 7 7 7 6 6 7 7 7 7 7 8 8 8 8 10 10 11 11 12 12 13 13 14 14 14 14 14 14 13 13 11 10 12 13 14 13 13 12 9 3 4 6 16 15 13 12 12 10 10 11 11 9 7 6 5 3 2 3 4 3 3 2 3
0 2 5 6 5 4 3 4 6 6 6 7 6 6 6 6 7 7 7 7 7 8 8 8 8 8 9 10 11 11 12 13 13 13 12 13 14 14 14 13 13 12 13 14 13 13 12 12 11 7 6 2 3 9 24 22 13 13 11 13 11 10 10 8 7 7 6 4 3 4 4 3 2 2
3 2 3 6 6 5 4 5 6 6 6 6 6 5 6 7 5 6 7 7 6 7 7 8 9 9 9 10 10 10 11 12 12 12 13 14 14 14 14 13 13 12 12 12 13 13 13 14 13 12 13 14 16 15 17 24 25 13 9 9 9 9 9 8 8 9 9 7 6 4 4 3 3 4
6 3 3 5 6 5 5 6 5 7 7 7 6 5 5 6 6 6 6 5 6 6 7 7 8 8 9 10 10 10 10 10 12 13 13 13 13 13 13 14 15 14 13 13 12 13 13 14 14 14 13 14 13 11 11 9 20 28 12 9 11 10 10 9 10 11 9 7 8 7 4 4 4 5
6 5 5 5 6 6 5 6 5 6 7 6 6 6 6 6 6 6 5 5 7 6 7 7 7 8 8 8 9 11 11 10 10 11 12 12 13 14 13 13 13 13 13 13 13 14 13 13 14 13 13 13 10 11 12 11 13 21 29 16 11 10 10 9 10 8 8 8 8 6 6 7 6 4
6 6 6 6 7 6 6 6 5 6 7 7 7 6 6 6 6 6 6 6 6 6 6 7 7 7 8 8 8 8 9 10 11 11 12 12 12 13 14 13 14 13 12 14 13 14 14 14 14 13 12 11 12 10 8 9 10 10 21 33 16 11 11 8 8 7 7 7 6 6 7 4 6 10
6 6 6 6 7 6 6 6 6 6 7 7 6 5 5 5 6 6 5 6 6 6 5 6 7 7 8 8 8 9 9 10 9 9 10 10 11 11 12 12 11 13 13 15 15 15 15 14 13 12 11 10 7 7 5 3 5 8 12 22 33 20 12 9 10 7 8 8 5 6 7 7 8 6
5 6 7 6 6 6 6 7 6 6 7 7 5 5 5 5 4 5 5 5 5 6 6 6 6 6 7 7 7 7 9 9 10 10 10 10 10 10 13 13 12 12 12 13 13 13 14 12 13 15 11 8 7 6 2 10 17 14 14 14 22 31 30 22 13 10 8 6 6 7 8 7 7 8
6 7 7 6 6 7 6 7 7 6 7 7 6 5 5 4 4 6 6 5 5 4 5 6 6 6 7 7 7 7 7 8 9 10 10 10 11 11 12 10 11 11 11 11 11 10 9 10 11 10 10 9 11 16 17 12 11 12 11 10 11 18 27 30 31 26 16 10 7 6 6 7 7 10
6 7 7 7 6 6 6 7 7 7 7 7 6 6 4 5 5 5 5 6 6 5 6 6 6 6 6 6 6 6 6 8 8 9 9 9 9 9 10 9 9 9 9 9 8 8 9 10 11 11 11 13 13 12 13 12 11 10 11 12 12 11 13 21 28 30 30 29 24 16 9 3 1 5
7 7 7 7 7 7 6 7 7 7 7 7 7 4 4 5 5 6 5 5 5 6 6 6 7 6 6 6 6 6 6 7 7 7 8 8 8 8 8 9 9 8 9 10 10 10 10 10 10 10 12 13 11 12 13 12 11 11 10 11 11 12 13 12 13 20 25 25 28 30 31 29 22 16
7 7 7 7 7 6 7 7 7 7 7 7 6 6 6 4 5 5 5 5 5 6 5 6 6 6 6 5 5 7 7 6 6 7 6 7 8 8 8 8 9 9 9 8 9 11 11 10 9 9 10 10 9 10 10 10 10 10 11 12 12 11 11 11 14 15 16 17 23 28 26 25 28 26
Wind_Direction
84 74 67 68 61 43 37 34 33 28 23 22 11 24 35 4 346 337 330 320 326 324 340 336 321 332 326 323 321 318 316 314 320 322 321 316 318 314 323 327 322 322 318 320 319 319 314 319 320 321 321 321 320 320 322 322 322 323 321 319 321 325 290 223 215 211 207 206 202 199 196 193 190 191
85 76 63 57 55 40 43 37 26 27 25 18 11 359 350 44 354 303 309 302 298 298 317 318 313 325 324 323 319 318 313 311 319 316 314 314 310 317 322 319 317 317 316 316 317 313 313 313 316 315 316 315 314 315 317 317 317 319 315 319 319 312 313 259 214 208 206 209 205 197 193 191 190 189
84 77 67 52 55 40 44 33 20 14 16 5 1 342 331 324 268 279 265 308 268 315 308 305 304 309 314 317 315 315 312 310 316 313 307 306 309 316 313 312 313 313 313 315 312 317 312 313 309 310 308 310 311 312 313 312 314 313 314 314 311 314 309 299 234 207 208 208 204 200 193 191 189 189
86 82 75 61 57 33 42 28 14 5 354 353 340 329 312 301 275 252 262 266 287 301 291 294 298 300 306 309 309 310 311 311 309 309 306 305 306 311 306 309 307 309 313 309 310 307 310 306 307 304 307 308 308 309 309 309 308 309 308 306 307 310 315 310 273 219 208 210 208 202 194 191 190 189
88 90 89 71 42 28 49 18 358 354 340 334 323 303 301 305 300 281 272 286 296 294 277 290 295 300 301 302 300 303 307 310 310 304 305 302 306 305 303 303 304 308 307 306 304 304 302 303 302 306 304 303 304 304 303 301 301 301 300 301 302 308 315 314 299 239 213 209 207 205 197 193 190 189
91 103 94 56 13 9 35 358 341 318 319 318 321 318 314 306 306 297 269 279 291 302 308 298 295 295 298 296 298 301 307 304 305 309 306 304 298 303 299 301 302 302 302 303 302 300 298 297 299 298 297 297 298 299 297 296 296 296 296 294 297 304 311 313 310 262 216 209 206 204 196 194 191 187
118 92 90 68 328 350 354 322 297 299 306 311 317 310 312 306 299 300 286 288 295 298 301 301 304 302 304 299 301 301 295 295 298 301 303 304 304 294 296 294 298 299 301 299 298 297 295 294 293 295 293 293 292 293 293 292 293 295 292 287 295 304 306 308 303 299 231 209 205 199 197 194 190 187
133 131 106 131 288 297 309 309 313 316 317 319 315 312 306 299 298 296 294 277 275 291 300 305 302 303 307 299 294 295 294 295 296 294 295 297 293 292 289 293 294 300 298 298 297 294 291 290 290 289 290 288 288 288 288 288 291 294 291 286 297 301 300 296 297 290 272 219 204 199 197 191 192 188
147 135 136 207 250 258 301 322 330 321 328 322 319 306 301 302 294 296 295 292 282 286 295 298 295 298 293 290 294 297 301 303 294 293 292 293 295 292 288 286 294 296 296 295 294 291 286 286 286 285 284 284 283 283 283 283 285 288 288 291 295 295 288 288 288 286 277 247 207 202 196 195 191 190
152 135 161 217 235 242 272 303 309 320 320 316 311 309 305 301 300 300 300 297 295 293 289 294 304 303 304 306 298 300 303 305 306 302 291 286 288 296 299 294 288 285 289 297 299 292 287 284 282 281 280 281 278 278 279 279 280 282 282 284 286 283 279 278 283 280 270 259 225 202 199 192 192 190
113 143 186 222 229 246 259 280 294 304 309 309 309 304 301 302 307 305 305 305 304 300 299 298 289 297 298 298 304 308 300 297 295 301 305 302 295 281 289 299 292 284 287 277 273 278 281 286 286 280 279 278 277 276 277 277 279 278 277 276 276 275 273 274 276 275 269 255 241 214 195 195 193 190
130 188 223 233 240 246 263 270 283 288 298 304 301 304 308 310 311 310 308 309 307 306 304 299 305 303 307 307 293 296 307 305 296 286 299 303 310 310 297 283 300 302 293 293 290 273 277 278 277 277 277 278 278 275 274 276 277 276 275 271 272 273 274 271 268 268 265 255 241 227 199 191 194 192
157 218 242 257 267 266 281 284 302 307 302 299 303 308 316 313 314 307 308 306 309 306 304 304 303 308 311 309 312 316 315 315 309 311 304 296 296 297 301 299 285 285 295 294 284 285 281 286 281 280 278 273 273 272 272 274 276 275 274 272 270 271 270 268 265 267 264 256 242 231 216 195 190 193
148 228 251 272 277 298 312 315 313 310 310 309 311 312 319 316 310 307 309 313 311 310 311 312 315 316 314 313 314 309 307 304 305 304 308 305 306 303 297 291 284 293 283 289 292 284 277 276 278 266 268 269 266 266 266 261 266 267 266 265 265 265 266 265 263 262 260 253 242 231 220 208 194 190
199 240 264 275 305 319 323 322 312 311 313 315 318 320 319 315 314 314 319 308 310 311 310 309 313 311 308 309 308 308 306 310 310 311 309 307 309 310 314 313 309 185 280 292 290 291 271 271 279 275 265 269 265 258 258 262 264 265 265 265 263 263 264 263 257 254 253 247 240 231 219 211 201 193
188 237 277 295 300 314 312 308 320 317 315 318 319 319 317 317 314 311 304 312 316 316 315 315 312 310 309 309 313 310 313 313 311 306 304 306 309 309 307 302 298 307 304 291 293 288 299 274 269 274 270 264 262 259 259 260 262 264 264 263 263 260 260 260 258 254 253 248 239 230 220 211 207 195
185 231 283 295 306 322 316 321 322 317 318 319 320 318 320 316 319 314 312 302 293 294 305 306 308 310 310 312 309 310 309 310 307 309 309 309 305 300 296 295 297 298 298 293 286 288 299 286 280 275 273 266 263 263 259 260 261 262 262 261 260 259 257 256 254 251 250 245 237 230 222 212 207 203
211 232 265 312 323 317 314 313 320 328 324 322 320 322 319 315 311 311 305 305 305 309 302 302 303 304 307 303 303 305 308 310 310 312 310 309 304 302 296 294 290 287 291 287 291 284 292 283 278 276 277 269 267 263 262 260 261 261 261 259 258 256 255 254 252 247 245 241 234 229 223 214 206 203
16 301 277 285 291 296 299 306 318 334 328 319 317 317 320 314 311 306 305 309 317 317 312 304 298 299 301 298 301 304 306 303 302 303 304 306 303 296 290 284 279 284 284 280 281 286 297 283 279 277 281 280 272 267 264 259 259 259 258 256 254 253 252 251 249 244 239 236 230 226 222 215 207 202
346 313 307 320 302 295 302 307 321 338 331 322 321 325 316 313 306 301 294 302 308 309 306 306 304 303 301 303 305 305 307 306 304 304 302 299 296 298 298 293 298 287 295 284 283 285 287 280 279 285 281 279 275 271 263 260 258 258 256 254 251 250 248 247 246 243 237 232 226 221 218 213 206 202
309 310 311 298 295 302 306 313 323 337 337 326 328 322 318 309 312 313 319 322 319 314 312 309 307 305 306 308 308 308 306 305 312 317 311 306 310 304 304 302 306 304 309 300 282 278 278 279 284 286 283 280 277 274 268 263 257 255 254 253 252 249 248 245 243 240 234 227 222 216 212 209 205 201
307 315 323 314 300 311 312 322 322 333 340 330 323 325 318 325 330 326 326 325 317 313 311 310 310 309 311 312 312 309 310 314 322 324 317 310 308 305 305 307 310 308 304 292 295 287 275 292 291 292 293 290 273 270 268 263 258 255 253 253 250 249 246 243 239 235 230 223 217 213 207 205 201 198
349 329 316 316 320 315 318 321 324 332 344 325 323 315 323 331 332 325 327 323 325 330 330 326 324 321 319 317 318 317 316 318 322 321 310 305 305 307 310 310 309 305 288 298 310 289 290 291 287 293 301 292 283 256 261 258 261 258 253 248 247 239 239 240 236 230 224 217 212 207 202 201 191 189
334 323 317 322 331 332 331 328 326 332 338 337 311 327 339 334 325 322 322 319 323 321 321 316 319 316 316 318 319 320 320 320 322 320 314 309 309 308 309 308 306 303 303 306 312 297 290 278 281 273 261 288 301 314 299 297 274 273 269 266 267 261 251 245 241 228 215 208 206 202 198 194 188 186
305 305 310 311 320 329 328 325 326 334 335 339 323 327 338 313 303 318 325 323 324 322 321 321 320 320 322 323 322 322 322 321 322 323 320 316 314 313 311 311 302 294 295 296 309 296 290 289 287 281 261 247 266 288 288 281 275 270 264 252 262 258 238 235 212 211 203 200 199 198 196 192 188 188
278 276 292 305 312 321 322 322 327 333 337 336 331 325 318 320 329 331 322 319 323 324 324 323 323 325 328 328 327 325 324 323 323 326 326 324 320 314 309 308 308 306 304 308 308 299 295 287 279 278 264 254 266 257 285 288 281 274 263 254 245 251 231 215 190 188 173 171 186 194 195 192 190 194
287 295 295 294 310 319 321 321 324 331 339 337 324 319 328 329 329 332 332 328 328 327 326 326 327 327 328 331 330 328 327 326 328 330 329 326 325 317 311 308 302 298 295 303 307 308 302 285 282 283 283 268 269 278 264 281 293 297 292 276 265 261 224 179 180 179 162 160 176 183 189 193 193 195
273 292 304 306 309 312 315 319 328 336 334 323 318 326 328 331 334 336 335 334 329 326 326 329 330 329 327 326 325 328 327 326 327 324 323 325 325 325 319 312 305 304 307 302 301 296 293 303 295 267 259 260 260 262 280 268 271 283 286 287 282 253 192 166 164 148 142 140 135 157 160 171 194 195
264 278 289 296 306 311 321 333 340 337 326 323 321 324 330 336 344 341 336 331 333 335 333 329 324 324 326 322 315 315 320 320 320 327 330 330 327 326 327 319 315 324 334 316 306 321 340 324 313 299 256 243 248 260 267 281 292 286 273 283 292 241 194 152 139 141 140 141 149 155 175 175 179 186
289 296 316 328 335 340 339 337 334 329 319 314 313 324 337 345 341 338 334 333 337 331 328 329 326 320 318 322 321 319 320 328 334 336 337 339 340 343 341 339 343 347 354 353 355 0 349 325 339 338 24 216 257 255 262 286 281 279 282 247 240 179 126 128 120 121 131 150 152 165 167 174 178 174
337 333 339 324 308 296 295 289 283 302 320 325 330 332 333 339 338 330 331 324 322 326 328 324 322 319 317 314 323 333 334 335 336 337 336 339 341 340 342 337 344 355 356 359 4 3 353 341 356 3 20 13 17 357 358 339 296 289 299 327 59 88 89 85 95 115 126 120 117 122 127 152 164 183
314 320 324 330 345 350 358 350 343 334 325 313 320 326 331 334 335 329 319 317 323 318 314 307 311 317 326 331 330 332 335 335 334 338 341 343 340 344 342 349 355 348 353 359 360 0 359 355 351 0 32 29 11 340 324 346 8 357 14 13 25 34 43 61 81 81 103 114 119 136 150 159 165 175
328 347 349 359 348 352 341 330 324 315 323 320 320 325 335 337 337 340 350 341 330 325 329 329 326 323 329 328 331 332 335 338 336 338 342 344 346 342 350 354 351 353 350 353 355 355 355 352 351 349 307 30 34 26 19 18 6 10 28 20 19 26 16 18 33 81 104 97 107 124 134 145 155 174
318 341 334 309 306 308 328 321 312 309 313 315 324 324 327 335 336 338 334 330 326 326 326 320 325 328 330 329 334 334 334 333 338 341 345 345 347 349 351 350 350 343 349 354 354 353 351 352 348 342 311 242 36 39 32 30 16 8 21 27 31 24 16 14 22 26 41 88 120 106 114 111 121 159
344 313 325 308 313 298 296 293 287 293 303 301 309 311 315 314 327 330 329 327 329 326 325 327 328 327 332 330 331 335 334 334 335 342 345 347 350 355 352 351 348 350 353 357 356 352 349 352 351 345 12 341 247 47 45 35 17 11 6 21 19 16 9 11 13 22 31 44 57 91 68 63 94 113
272 212 261 290 293 296 303 284 286 287 285 289 289 298 320 319 317 329 322 321 325 317 325 330 331 334 334 332 331 332 335 336 337 343 348 352 351 352 354 356 353 352 355 359 357 355 354 357 1 8 17 19 28 26 24 21 29 18 16 16 12 9 10 10 21 30 27 30 30 65 68 68 22 359
271 267 251 266 281 279 268 272 277 282 281 283 288 284 282 293 302 308 305 314 318 323 323 323 328 330 330 333 333 335 338 343 341 344 349 350 351 352 355 355 357 355 0 4 2 1 2 4 4 11 20 29 32 37 29 354 23 28 21 17 15 12 5 11 28 32 21 21 37 36 47 56 21 351
244 268 282 278 273 277 265 262 271 277 280 282 283 291 279 272 285 299 313 335 332 330 328 331 325 331 330 333 338 338 339 340 344 346 345 348 353 356 357 354 356 357 358 360 5 7 7 8 11 11 13 11 3 19 16 6 21 22 20 21 20 18 10 22 34 31 28 29 42 32 54 52 25 349
243 261 261 270 278 275 274 265 252 265 274 282 289 288 288 293 300 311 326 324 322 324 327 330 331 327 329 334 336 337 336 341 346 347 346 346 352 353 355 355 356 357 359 5 5 9 9 12 12 12 14 9 12 1 349 12 25 18 23 27 29 27 21 21 29 28 28 25 27 52 63 67 69 39
243 234 251 254 265 264 263 261 262 255 263 267 273 277 278 281 292 303 309 317 323 322 321 319 321 329 334 337 337 336 338 343 343 341 344 343 345 351 356 354 360 357 0 7 8 8 9 8 8 9 8 6 340 329 308 359 48 34 31 26 30 37 28 30 33 25 23 13 357 45 56 37 52 8
266 266 262 234 249 260 258 258 247 257 263 264 265 274 270 262 278 282 286 297 308 319 322 318 323 328 327 332 339 341 338 339 342 344 346 346 345 349 355 358 2 1 2 7 6 6 5 359 349 351 9 8 347 278 351 31 30 20 23 24 25 32 39 45 43 38 34 3 16 50 52 50 53 49
261 267 274 266 254 262 249 253 251 248 260 261 257 263 277 271 259 273 290 300 303 308 305 310 318 323 327 335 336 339 343 339 340 343 345 349 348 348 357 3 2 357 2 3 360 357 342 349 351 2 8 13 21 35 38 30 29 23 21 20 22 31 35 39 47 48 48 36 20 29 50 58 60 52
258 254 265 268 260 259 255 248 245 240 252 259 260 254 260 278 286 293 294 302 306 310 308 310 311 315 320 328 336 333 337 342 341 338 342 348 351 350 348 351 352 354 359 349 347 350 355 357 4 9 14 29 27 35 37 29 26 26 23 24 25 26 32 37 44 46 44 48 58 62 49 18 356 73
247 250 256 257 263 262 257 245 244 237 243 252 251 249 241 254 276 274 273 277 289 294 300 307 307 314 317 323 327 334 350 340 333 337 340 340 346 348 345 342 347 356 1 0 353 359 358 7 9 8 23 26 19 32 31 26 28 24 26 29 26 27 33 31 38 44 46 34 42 56 58 62 62 71
242 240 251 258 252 254 253 248 239 241 240 250 253 249 249 243 250 268 273 269 271 281 294 296 303 304 310 318 345 345 331 332 337 336 338 347 350 349 349 348 349 353 6 2 3 1 359 359 6 16 28 23 21 30 31 34 29 28 27 29 27 28 30 31 41 44 45 47 34 48 57 58 62 61